STARLINK-32615, 62034

Orbit data source: Space-Track

STARLINK-32615, 62034 is a payload satellite owned by SpaceX/Seattle (US) in LEO that was launched on Thu, 21 Nov 2024 UTC via an FALCON 9 launch vehicle from the Air Force Eastern Test Range (AFETR). Payload-class satellites include a variety of spacecraft equipped with specific instruments for various scientific and technological missions. These include communications satellites like Starlink; space stations such as the ISS; scientific satellites like the Hubble; Earth observation satellites from companies like Planet Labs, Umbra, and HawkEye 360; GPS; miniature CubeSats for education and research; and military/defense satellites.

Loading next visibility...
Identifier
62034, 2024-216C
Orbit
LEO
Country
Flag of USUS
Related business
Manufacturer
SpaceX/Seattle
Mission
Operational Commercial Communications
Bus & Motor
STARLINK V2M, Unknown motor
Mass
730 kg wet, ~700 kg dry
Launch date (UTC)
2024-11-21 (1 year ago)
Launch vehicle
FALCON 9
Launch site
Air Force Eastern Test Range (AFETR)
Object type
Payload
Rocket body
Debris
Shape & HBR
Box + 2 Pan, 17.7 m
Radar Cross Section
33.884 m², Large (>1 m²)

Expand to show TLE details & history
Last TLE update: 8 hours ago

TLE from 8 hours ago
0 STARLINK-32615
1 62034U 24216C   26124.19848677  .00030679  00000-0  11187-2 0  9990
2 62034  43.0005 302.9547 0001840 282.0787  77.9858 15.27609903 81203
Epoch: 2026-05-04T04:45Z
TLE epoch observation values (Epoch: 2026-05-04T04:45:49.256Z)
Latitude
-0.00007°
Longitude
9.40827°
Altitude
482.473 km
Speed
7.626 km/s
True Right ascension
20h 11m 49s
True Declination
0° 00' 00"
Sunlit
Object was in daylight at epoch
Visualization orbit readout
Latitude
Unknown
Longitude
Unknown
Altitude
Unknown
Speed
Unknown
Apparent Right ascension
Unknown
Apparent Declination
Unknown
Sunlit
N/A
Visualization observer readout
Local Sidereal Time
20:27:29
Azimuth
Unknown
Elevation
Unknown
Doppler factor
Unknown
Orbital elements
Apogee altitude
486.167 km
Perigee altitude
483.642 km
Semi-major axis
6,863.042 km
Eccentricity
0.00018
Inclination
43.0005°
RAAN
302.9547°
Arg. of periapsis
282.0787°
True anomaly
78.00642°
Mean anomaly
77.9858°
Eccentric anomaly
77.99611°
Mean motion
3.8174 °/min
Orbital period
94.3 mins
BSTAR
0.0011187
Loading maneuver chart data...
Computing Atmospheric mass density...
Loading historical data...
Loading historical data...
Loading historical data...
Loading historical data...
Loading historical data...
Loading historical data...
Loading historical data...

Documentation

Showing up to 5 results
|